Vertical_Velocity
-1 -1 -1 -1 -1 -1 -1 -1 -1 -0 0 0 0 -0 -0 0 -0 -1 -1 -1 -0 -0 0 0 1 1 1 0 1 1 1 1 1 1 1 0 -1 -1 -1 -2 -2 -2 -3 -4 -4 -4 -4 -4 -3 -4 -4 -4 -3 -4 -5 -4 -3 -5 -6 -5 -4 -3 -2 -1 -1 0 1 2 1
-1 -1 -1 -0 -1 -0 -0 -1 -1 -1 -1 -1 -0 -0 -0 -0 -0 -1 -1 -1 -1 -0 0 -0 1 1 1 -1 0 0 0 -0 0 0 0 -0 -1 -1 -2 -2 -2 -2 -2 -3 -3 -3 -3 -3 -3 -3 -3 -4 -2 -2 -4 -4 -2 -3 -5 -6 -5 -3 -3 -2 -2 -1 -0 0 1
-0 -1 -1 -0 -0 -0 -0 -0 -1 -1 -1 -1 -1 -1 -1 -1 -1 -1 -1 -2 -2 -1 -1 -0 -1 0 1 -0 -1 -1 -1 -1 -1 -1 -1 -1 -1 -1 -1 -1 -2 -2 -2 -2 -3 -3 -3 -2 -2 -2 -2 -3 -2 -2 -2 -3 -2 -2 -2 -4 -3 -3 -2 -2 -2 -1 -1 -1 -0
-0 -0 -0 -0 -0 -0 -0 -0 -1 -1 -2 -1 -2 -2 -2 -2 -1 -1 -1 -2 -2 -2 -2 -2 -2 -2 -1 -0 -2 -2 -2 -2 -2 -2 -2 -2 -1 -1 -1 -1 -1 -1 -2 -1 -1 -2 -2 -2 -2 -2 -2 -2 -2 -2 -2 -2 -2 -2 -1 -1 -1 -1 -1 -2 -2 -1 -0 -1 -0
-1 -1 -0 -1 -1 -1 -1 -1 -1 -2 -2 -2 -2 -2 -3 -2 -2 -2 -2 -2 -2 -3 -3 -3 -3 -3 -3 -2 -2 -2 -2 -2 -2 -2 -2 -2 -1 -1 -1 -1 -0 -1 -1 -1 -0 -1 -1 -1 -1 -1 -1 0 -1 -2 -1 -0 -1 -1 -1 0 0 1 1 -0 -1 -0 0 -1 -0
-1 -1 -2 -2 -2 -2 -2 -2 -2 -2 -2 -2 -2 -2 -3 -3 -2 -2 -2 -2 -3 -3 -3 -3 -3 -3 -3 -2 -2 -2 -1 -1 -2 -1 -1 -2 -2 -1 -0 -1 -1 -0 -0 -1 -0 -0 -0 1 -0 -1 -1 1 1 -1 -2 1 0 -0 -1 0 -0 1 2 1 -1 0 1 -1 -1
-1 -1 -2 -2 -2 -2 -3 -3 -2 -2 -2 -2 -2 -2 -3 -3 -2 -2 -2 -2 -2 -3 -3 -2 -2 -3 -3 -2 -2 -1 -1 -0 -1 -0 0 -0 -1 -1 0 0 -1 -1 -0 0 -0 -1 -1 1 1 -0 -2 -1 1 0 -0 1 1 0 0 1 -1 1 3 3 -1 -0 1 1 0
-1 -1 -1 -2 -2 -2 -3 -3 -2 -2 -2 -2 -2 -2 -2 -2 -2 -2 -2 -2 -2 -2 -2 -2 -2 -2 -2 -2 -1 -1 -0 1 -0 -0 0 1 0 -0 -0 1 1 -0 -1 0 1 -0 -1 -1 0 -0 -1 -1 -0 -0 0 2 2 1 0 2 1 1 2 4 2 0 -0 2 2
-2 -2 -2 -1 -2 -2 -2 -3 -2 -2 -2 -2 -2 -2 -2 -2 -1 -1 -1 -1 -1 -1 -1 -1 -1 -1 -1 -1 -1 -1 -1 0 0 -0 -0 0 1 0 -1 -0 1 0 -1 -1 0 0 -1 -1 -1 -1 -2 -1 -0 -1 -1 1 3 2 -0 1 3 2 1 2 4 2 -1 0 3
-2 -2 -1 -1 -2 -2 -2 -2 -2 -1 -1 -1 -1 -1 -1 -1 -1 -1 -1 -1 -1 -1 -1 -1 -1 -1 -1 -1 -1 -2 -1 -1 -1 -1 -1 -1 -0 -0 -1 -1 -1 -1 -1 -2 -1 -1 -1 -2 -1 -1 -2 -3 -0 -0 -1 -1 2 2 1 -1 2 3 2 1 4 3 0 -2 2
-2 -1 -1 -0 -1 -1 -1 -1 -2 -1 -0 -0 -1 -1 -1 -1 -1 -2 -2 -1 -1 -1 -2 -1 -1 -2 -2 -1 -1 -2 -2 -2 -2 -1 -2 -2 -2 -2 -2 -2 -2 -2 -2 -3 -3 -2 -2 -3 -2 -1 -1 -3 -1 0 -0 -2 1 2 2 -1 1 2 2 0 3 3 2 -1 0
-1 -1 -1 -0 0 0 0 0 0 0 0 0 -0 -0 -0 -1 -1 -1 -2 -1 -1 -1 -2 -2 -1 -2 -2 -3 -2 -2 -2 -2 -2 -2 -2 -3 -3 -3 -3 -3 -3 -3 -3 -4 -4 -3 -3 -4 -3 -2 -1 -3 -2 0 1 -1 -1 0 1 1 1 2 2 0 2 2 2 1 0
-1 -1 -1 -0 0 1 1 1 1 1 1 0 0 0 -0 -1 -1 -1 -1 -1 -1 -1 -1 -2 -1 -1 -2 -3 -3 -2 -2 -2 -3 -3 -3 -3 -3 -3 -4 -4 -3 -3 -3 -4 -4 -4 -3 -5 -4 -3 -2 -2 -2 -1 0 -0 -1 -1 -1 0 0 1 1 1 1 1 1 0 1
-1 -1 -1 -1 -0 0 1 1 1 1 1 0 -0 0 0 -1 -1 -1 -0 -1 -1 -1 -1 -1 -2 -1 -1 -2 -3 -3 -3 -2 -2 -3 -3 -4 -3 -3 -3 -4 -4 -3 -3 -3 -4 -4 -4 -5 -6 -5 -3 -2 -3 -2 -1 -1 -2 -2 -2 -1 -1 -1 -0 1 1 1 -0 -1 -1
-1 -1 -1 -1 -1 -0 0 1 1 1 1 -0 -1 -0 -0 -1 -1 -1 -0 -1 -1 -0 0 -1 -1 -2 -2 -1 -1 -2 -3 -3 -2 -1 -2 -4 -3 -3 -2 -3 -4 -3 -3 -3 -3 -4 -4 -4 -6 -6 -6 -4 -3 -2 -2 -2 -2 -2 -2 -2 -2 -2 -2 -1 0 -0 -1 -1 -1
-2 -2 -2 -1 -1 -1 -1 -0 -0 -0 -0 -1 -1 -1 -1 -1 -1 -1 -0 -1 -1 -0 0 1 0 -1 -1 -2 0 0 -1 -3 -2 -1 -1 -2 -3 -2 -2 -2 -2 -3 -2 -2 -3 -3 -3 -3 -4 -5 -5 -6 -5 -3 -2 -2 -2 -2 -2 -2 -2 -2 -2 -2 -1 -1 -1 -1 -1
-2 -2 -2 -2 -2 -1 -1 -1 -1 -1 -1 -2 -2 -1 -1 -1 -1 -1 -0 0 0 0 -0 0 1 1 -0 -2 -2 -0 1 -1 -3 -2 -1 -1 -2 -2 -2 -1 -2 -2 -2 -2 -2 -2 -3 -3 -3 -3 -3 -4 -4 -4 -3 -3 -2 -2 -1 -1 -1 -1 -2 -2 -1 -2 -2 -2 -1
-2 -2 -2 -2 -2 -1 -1 -1 -1 -2 -1 -1 -1 -1 -1 -0 -0 -0 -1 -0 1 1 0 -1 -0 0 0 -1 -2 -2 -1 1 -1 -3 -2 -1 -2 -2 -2 -1 -1 -1 -1 -1 -2 -2 -2 -2 -2 -2 -2 -2 -2 -2 -2 -2 -3 -3 -2 -1 -1 -1 -1 -1 -1 -2 -2 -3 -3
-2 -2 -2 -1 -1 -1 -0 -0 -0 -1 -1 -0 0 -0 -0 -0 0 -0 -1 -2 -1 0 1 -1 -1 -1 -1 -1 -2 -3 -3 -1 -1 -3 -3 -2 -2 -2 -3 -1 -1 -0 -0 -0 -2 -2 -2 -1 -1 -2 -2 -2 -2 -2 -1 -1 -2 -2 -2 -1 -1 -1 -1 -0 -1 -1 -1 -2 -3
-1 -1 -1 -1 0 0 0 1 1 0 -0 0 0 0 -1 -1 -1 -1 -1 -2 -2 -1 -1 -1 -1 -2 -2 -2 -2 -3 -4 -3 -2 -3 -4 -3 -1 -2 -2 -2 -2 -1 1 2 -1 -2 -3 -1 -1 -1 -2 -2 -1 -1 -1 -1 -1 -1 0 1 0 -0 -0 1 0 0 -0 -0 -1
-1 -0 -0 -0 0 1 0 0 0 -0 -0 -1 -0 -1 -1 -2 -2 -2 -2 -2 -2 -2 -2 -2 -2 -3 -3 -3 -2 -3 -3 -3 -2 -2 -4 -4 -3 -2 -1 -1 -3 -2 -1 2 0 -1 -2 -1 -1 -2 -2 -2 -1 -0 0 -0 -1 -0 1 3 3 2 2 2 2 2 1 1 1
-1 -0 -0 -0 -0 -0 -0 -1 -1 -1 -1 -2 -2 -1 -1 -2 -2 -3 -3 -3 -3 -3 -3 -3 -3 -3 -4 -4 -3 -3 -3 -3 -1 -1 -2 -3 -4 -3 -2 1 -1 -3 -3 0 0 -1 -2 -1 -0 0 -0 -2 -2 -1 1 2 1 1 2 3 4 5 4 5 5 4 4 4 4
-0 -1 -1 -1 -1 -1 -1 -1 -2 -2 -2 -2 -2 -2 -2 -2 -3 -3 -3 -4 -3 -4 -4 -4 -3 -3 -4 -5 -4 -3 -3 -4 -3 -1 0 -0 -2 -4 -4 -1 1 -0 -2 -1 -1 -1 -2 -3 -2 0 2 1 -1 -1 0 2 1 1 2 3 4 5 6 7 7 6 6 6 6
-0 -1 -1 -1 -1 -1 -1 -1 -2 -2 -2 -3 -3 -3 -3 -3 -3 -3 -3 -4 -4 -3 -3 -4 -4 -3 -3 -4 -4 -3 -3 -3 -4 -3 -1 1 1 -1 -3 -3 -1 0 0 0 -0 -1 -2 -2 -4 -3 -2 1 0 -0 0 2 1 1 1 2 3 3 5 6 8 7 7 6 6
-1 -1 -2 -1 -2 -2 -2 -2 -2 -3 -3 -3 -3 -3 -3 -3 -3 -3 -3 -3 -3 -3 -2 -3 -3 -3 -2 -2 -3 -3 -3 -2 -3 -4 -3 -1 1 2 1 -1 -1 -1 0 1 1 1 0 0 -2 -4 -4 -4 -2 -1 -1 1 2 1 1 0 1 1 1 2 5 6 7 6 6
-1 -1 -2 -2 -2 -2 -3 -3 -3 -3 -4 -4 -4 -4 -4 -4 -3 -3 -3 -2 -2 -2 -2 -2 -2 -2 -2 -2 -2 -2 -3 -2 -2 -3 -3 -3 -2 -0 1 2 1 1 1 1 0 1 2 2 1 -1 -3 -4 -4 -4 -3 -2 1 2 1 -1 0 0 -0 -1 -0 2 3 4 5
-1 -2 -2 -2 -2 -3 -3 -3 -3 -4 -4 -3 -4 -4 -4 -3 -3 -3 -3 -2 -2 -2 -2 -2 -2 -2 -2 -3 -2 -2 -2 -2 -1 -1 -2 -2 -1 -2 -1 0 2 2 2 1 0 1 2 2 2 1 -0 -2 -4 -4 -4 -4 -3 -1 0 -0 -1 -1 -1 -1 -2 -1 -0 1 3
-2 -2 -2 -2 -3 -4 -4 -4 -4 -4 -4 -3 -3 -3 -3 -2 -3 -3 -3 -3 -2 -2 -2 -3 -2 -1 -1 -3 -3 -2 -2 -2 -1 -2 -2 -1 1 1 -0 -1 -0 1 3 3 1 1 2 2 2 2 1 0 -3 -4 -4 -4 -4 -3 -2 -1 -1 -1 -1 -2 -2 -2 -2 -1 -0
-2 -2 -2 -3 -3 -4 -4 -4 -3 -3 -3 -3 -2 -2 -3 -3 -3 -3 -3 -3 -3 -3 -2 -3 -4 -2 -1 -0 -2 -2 -2 -1 -1 -2 -2 -2 -0 2 2 2 1 1 2 3 1 1 2 2 2 2 2 1 -1 -3 -4 -4 -4 -4 -4 -3 -2 -2 -2 -2 -3 -3 -3 -2 -2
-2 -2 -2 -3 -3 -3 -3 -4 -3 -3 -2 -3 -3 -3 -3 -3 -4 -4 -4 -3 -3 -3 -2 -1 -4 -5 -4 -1 -1 -2 -2 -1 1 1 -1 -2 -1 0 2 3 2 2 2 3 1 1 1 2 1 1 1 0 -1 -2 -4 -4 -4 -5 -5 -5 -4 -3 -3 -3 -3 -3 -3 -3 -3
-3 -3 -2 -3 -3 -3 -3 -3 -3 -3 -2 -3 -3 -3 -3 -3 -3 -4 -5 -4 -4 -3 -2 1 -1 -3 -5 -2 -1 -2 -2 -2 -0 0 1 1 -1 -0 1 3 2 2 2 2 1 0 0 1 1 0 -0 -1 -2 -3 -4 -4 -5 -5 -5 -5 -4 -4 -4 -4 -3 -3 -3 -3 -3
-3 -3 -3 -2 -3 -4 -3 -2 -3 -3 -3 -3 -3 -3 -4 -5 -4 -3 -3 -4 -5 -5 -5 -2 -0 -1 -1 -0 1 1 0 1 -1 -2 -1 0 -1 -1 -1 1 2 1 1 1 0 -0 -1 -1 -1 -1 -2 -2 -3 -3 -4 -4 -5 -5 -5 -4 -4 -3 -3 -3 -3 -3 -3 -2 -3
-3 -3 -3 -2 -3 -4 -4 -3 -3 -3 -4 -4 -3 -3 -3 -5 -6 -4 -3 -2 -2 -4 -5 -4 -3 -3 -2 -0 -0 -1 -1 2 2 -1 -3 -3 -2 -2 -2 -1 0 1 -0 -1 -1 -2 -2 -3 -2 -3 -3 -4 -4 -4 -4 -4 -5 -4 -4 -3 -3 -2 -1 -1 -2 -2 -2 -2 -2
-3 -3 -4 -3 -3 -3 -4 -4 -3 -3 -3 -4 -4 -4 -3 -3 -6 -6 -5 -3 -1 -1 -1 -2 -2 -3 -4 -2 -2 -3 -5 -4 -0 0 -1 -4 -4 -3 -1 -1 -1 -0 -1 -2 -3 -3 -3 -4 -4 -4 -4 -5 -6 -5 -5 -5 -5 -4 -3 -2 -2 -1 -1 -0 -0 -0 -0 -1 -1
-3 -3 -3 -4 -3 -3 -4 -4 -4 -3 -3 -4 -4 -4 -4 -2 -3 -4 -5 -5 -3 -1 0 0 -1 -2 -2 -2 -1 -2 -4 -6 -5 -2 -1 -2 -4 -5 -3 -1 -1 -1 -1 -1 -3 -4 -4 -4 -4 -4 -5 -6 -6 -6 -5 -5 -4 -4 -3 -2 -1 -1 -0 0 0 0 1 1 1
-3 -3 -3 -3 -3 -3 -3 -4 -4 -4 -3 -3 -3 -4 -4 -3 -2 -1 -1 -2 -4 -3 -1 1 -1 -3 -3 -2 -1 -1 -1 -2 -5 -5 -3 -1 -3 -5 -6 -3 -1 -1 -2 -2 -3 -3 -4 -4 -4 -4 -5 -6 -6 -6 -6 -5 -4 -3 -2 -1 -1 -1 -0 0 0 0 1 2 2
-4 -3 -3 -3 -3 -3 -3 -4 -4 -4 -4 -3 -2 -2 -3 -4 -4 -3 -1 0 -3 -4 -2 2 1 -2 -3 -3 -2 -2 -1 -0 -3 -5 -5 -3 -3 -5 -6 -6 -3 -2 -1 -2 -3 -3 -3 -3 -3 -4 -5 -5 -7 -7 -7 -5 -5 -4 -3 -2 -2 -1 -1 0 -0 0 1 2 2
-4 -4 -4 -4 -4 -4 -4 -3 -4 -4 -4 -4 -2 -1 -1 -2 -4 -4 -3 -1 -3 -5 -5 -2 -0 -0 -1 -3 -3 -2 -1 0 -2 -4 -6 -5 -4 -4 -5 -7 -6 -4 -2 -2 -3 -3 -3 -3 -3 -4 -5 -5 -7 -8 -8 -6 -5 -5 -4 -2 -2 -2 -2 -0 0 0 0 1 2
-4 -4 -4 -4 -4 -4 -4 -3 -3 -3 -4 -5 -4 -3 -1 -1 -3 -4 -3 -2 -3 -4 -4 -4 -3 -2 -2 -3 -4 -4 -2 -0 -0 -2 -4 -5 -5 -5 -5 -6 -6 -6 -4 -2 -3 -3 -4 -4 -4 -4 -5 -6 -7 -7 -8 -7 -6 -5 -5 -4 -3 -3 -2 -1 1 1 -0 -0 2
-4 -4 -4 -4 -3 -4 -5 -4 -3 -2 -2 -4 -6 -6 -4 -2 -3 -3 -3 -3 -2 -2 -3 -4 -4 -3 -3 -4 -5 -5 -4 -3 -1 -0 -1 -4 -4 -4 -4 -5 -6 -6 -5 -3 -3 -3 -4 -4 -4 -4 -5 -6 -7 -8 -8 -7 -6 -6 -6 -4 -3 -3 -3 -3 0 2 1 -1 1
-4 -4 -4 -5 -3 -2 -3 -6 -5 -3 -1 -2 -4 -5 -5 -4 -3 -2 -2 -3 -4 -3 -2 -4 -5 -4 -3 -3 -5 -6 -5 -5 -3 -1 -1 -2 -3 -4 -4 -4 -5 -6 -6 -4 -2 -2 -3 -4 -3 -3 -4 -6 -7 -8 -8 -6 -6 -6 -6 -5 -4 -2 -2 -2 -1 0 2 2 1
Height
5739 5738 5736 5735 5734 5732 5730 5729 5727 5726 5724 5723 5721 5719 5717 5716 5714 5712 5710 5709 5707 5705 5703 5701 5699 5697 5695 5693 5691 5689 5687 5685 5683 5681 5678 5676 5674 5671 5669 5667 5664 5662 5660 5658 5655 5653 5651 5649 5646 5644 5642 5639 5637 5635 5632 5629 5627 5625 5623 5620 5618 5616 5614 5612 5609 5607 5605 5602 5599
5736 5735 5733 5732 5730 5729 5727 5726 5724 5722 5720 5719 5717 5715 5713 5712 5710 5708 5706 5704 5702 5700 5699 5696 5694 5693 5690 5688 5686 5684 5682 5680 5678 5675 5673 5671 5669 5666 5664 5661 5659 5657 5654 5652 5649 5647 5645 5642 5640 5638 5635 5633 5631 5629 5626 5623 5620 5618 5616 5613 5611 5609 5606 5604 5601 5599 5597 5594 5591
5733 5732 5730 5729 5727 5726 5724 5722 5720 5719 5717 5715 5713 5711 5709 5708 5706 5704 5702 5700 5698 5696 5694 5692 5690 5688 5686 5684 5681 5679 5677 5674 5672 5670 5668 5665 5663 5660 5658 5656 5653 5651 5648 5646 5643 5641 5638 5636 5634 5631 5629 5626 5624 5622 5619 5616 5614 5611 5609 5606 5604 5601 5599 5596 5594 5591 5589 5586 5584
5730 5729 5727 5725 5724 5722 5720 5719 5717 5715 5713 5711 5709 5707 5705 5704 5702 5700 5698 5696 5694 5691 5689 5687 5685 5683 5681 5679 5676 5674 5672 5669 5667 5664 5662 5660 5657 5655 5652 5649 5647 5644 5642 5639 5637 5634 5632 5629 5627 5624 5622 5620 5617 5615 5612 5609 5607 5604 5601 5599 5596 5594 5591 5589 5586 5583 5581 5579 5576
5727 5725 5724 5722 5720 5718 5717 5715 5713 5711 5709 5707 5705 5704 5702 5700 5698 5696 5694 5691 5689 5687 5685 5683 5680 5678 5676 5674 5671 5669 5666 5664 5661 5659 5656 5654 5651 5649 5646 5644 5641 5638 5636 5633 5630 5628 5625 5623 5620 5618 5615 5613 5610 5608 5605 5602 5600 5597 5594 5592 5589 5587 5584 5581 5578 5575 5573 5571 5569
5724 5722 5720 5718 5716 5715 5713 5711 5709 5707 5705 5704 5702 5699 5698 5696 5694 5691 5689 5687 5685 5683 5680 5678 5675 5673 5671 5669 5666 5664 5661 5659 5656 5653 5651 5648 5645 5643 5640 5638 5635 5632 5629 5627 5624 5621 5619 5616 5614 5611 5608 5606 5604 5601 5598 5595 5592 5590 5587 5585 5582 5579 5577 5574 5571 5568 5566 5564 5561
5720 5719 5717 5715 5713 5711 5709 5707 5705 5704 5701 5699 5698 5695 5694 5691 5689 5687 5685 5683 5680 5678 5675 5673 5670 5668 5665 5663 5661 5658 5656 5653 5650 5648 5645 5643 5640 5637 5634 5632 5629 5626 5623 5620 5618 5615 5612 5609 5607 5604 5602 5599 5597 5594 5591 5588 5585 5583 5580 5578 5575 5572 5569 5567 5564 5561 5558 5556 5554
5717 5715 5714 5711 5709 5708 5705 5704 5702 5699 5698 5695 5694 5691 5689 5687 5685 5682 5680 5678 5675 5673 5670 5668 5665 5662 5660 5657 5655 5652 5650 5648 5645 5642 5639 5637 5634 5631 5628 5625 5623 5619 5616 5614 5611 5608 5605 5602 5600 5597 5595 5592 5589 5587 5584 5581 5579 5576 5573 5570 5568 5565 5562 5559 5556 5554 5551 5549 5547
5714 5712 5710 5708 5706 5704 5702 5699 5697 5695 5693 5691 5689 5687 5684 5682 5680 5677 5675 5673 5670 5667 5665 5662 5659 5657 5654 5652 5649 5646 5644 5641 5639 5636 5633 5630 5628 5625 5622 5619 5616 5613 5610 5607 5604 5602 5599 5596 5593 5590 5588 5585 5582 5580 5577 5574 5571 5569 5566 5563 5560 5558 5555 5552 5549 5546 5544 5541 5539
5710 5708 5706 5704 5702 5700 5698 5695 5693 5691 5689 5687 5684 5682 5679 5677 5674 5672 5670 5667 5664 5662 5659 5657 5654 5651 5649 5646 5643 5640 5638 5635 5633 5630 5627 5624 5621 5618 5615 5612 5609 5607 5604 5600 5598 5595 5592 5589 5586 5583 5580 5577 5575 5572 5569 5566 5563 5561 5558 5555 5552 5550 5548 5545 5541 5539 5537 5534 5532
5706 5704 5702 5700 5698 5696 5694 5691 5689 5687 5684 5682 5680 5677 5675 5672 5669 5667 5664 5662 5659 5656 5654 5651 5648 5645 5643 5640 5637 5635 5632 5629 5626 5624 5621 5618 5615 5612 5609 5606 5603 5600 5597 5594 5590 5588 5585 5582 5579 5576 5573 5570 5567 5564 5562 5559 5555 5553 5550 5548 5545 5543 5540 5538 5534 5532 5529 5527 5525
5703 5700 5699 5696 5694 5692 5689 5687 5685 5682 5680 5678 5675 5672 5670 5667 5664 5662 5659 5656 5654 5651 5648 5645 5643 5640 5637 5634 5631 5629 5626 5623 5620 5617 5614 5611 5608 5605 5602 5599 5596 5593 5590 5586 5583 5580 5577 5574 5571 5568 5566 5563 5559 5556 5554 5551 5548 5545 5543 5540 5537 5535 5533 5530 5527 5524 5522 5520 5518
5699 5696 5694 5692 5690 5688 5685 5683 5680 5678 5675 5673 5670 5668 5665 5662 5659 5657 5654 5651 5649 5646 5643 5640 5637 5634 5631 5629 5626 5623 5620 5617 5614 5611 5608 5605 5602 5599 5596 5592 5589 5586 5583 5579 5575 5572 5569 5566 5563 5560 5557 5555 5552 5549 5545 5543 5540 5537 5535 5532 5530 5528 5525 5523 5520 5517 5515 5513 5510
5694 5692 5690 5688 5685 5683 5681 5678 5676 5673 5670 5668 5665 5663 5660 5657 5654 5651 5649 5646 5643 5640 5638 5635 5631 5629 5626 5623 5620 5617 5614 5611 5608 5605 5602 5599 5595 5592 5589 5585 5582 5578 5575 5571 5567 5564 5560 5557 5554 5551 5549 5546 5544 5541 5538 5535 5532 5530 5527 5524 5522 5520 5518 5515 5513 5510 5508 5506 5504
5689 5687 5685 5683 5680 5678 5676 5674 5671 5668 5665 5663 5660 5657 5654 5652 5649 5646 5644 5641 5638 5635 5632 5629 5626 5623 5620 5617 5614 5611 5608 5605 5602 5599 5596 5592 5589 5585 5581 5578 5574 5570 5567 5563 5559 5555 5552 5549 5546 5543 5540 5538 5535 5533 5530 5528 5525 5522 5520 5517 5515 5513 5510 5508 5505 5503 5501 5499 5497
5685 5683 5680 5678 5675 5673 5671 5668 5666 5663 5660 5657 5654 5652 5649 5647 5644 5641 5639 5636 5633 5630 5627 5624 5621 5618 5615 5611 5608 5605 5602 5599 5595 5592 5589 5585 5581 5578 5574 5570 5566 5563 5559 5555 5551 5548 5544 5541 5538 5535 5532 5530 5528 5525 5523 5520 5518 5515 5513 5510 5508 5506 5504 5501 5499 5497 5494 5492 5490
5680 5678 5675 5673 5670 5668 5665 5663 5660 5658 5655 5652 5649 5647 5644 5642 5639 5636 5633 5631 5628 5625 5622 5619 5615 5613 5609 5606 5602 5599 5595 5592 5588 5584 5581 5577 5574 5570 5566 5562 5558 5554 5551 5547 5544 5540 5537 5534 5530 5528 5525 5523 5520 5518 5516 5514 5511 5509 5506 5504 5502 5499 5497 5495 5493 5490 5489 5486 5484
5675 5673 5670 5668 5666 5663 5661 5658 5655 5653 5650 5648 5645 5642 5639 5637 5634 5631 5628 5625 5622 5619 5617 5613 5609 5606 5603 5599 5595 5591 5588 5584 5581 5577 5573 5569 5565 5562 5558 5554 5550 5547 5543 5539 5536 5533 5530 5527 5524 5521 5519 5516 5514 5511 5509 5507 5505 5503 5500 5498 5496 5494 5491 5489 5487 5485 5483 5481 5479
5671 5668 5666 5664 5661 5659 5656 5654 5651 5648 5645 5643 5640 5637 5634 5631 5629 5625 5622 5619 5616 5613 5610 5607 5603 5599 5595 5592 5588 5584 5580 5576 5573 5569 5565 5561 5557 5554 5550 5547 5543 5539 5536 5532 5529 5526 5523 5520 5517 5515 5512 5510 5507 5505 5503 5501 5499 5497 5495 5493 5491 5489 5486 5484 5481 5479 5477 5475 5473
5666 5664 5661 5659 5657 5654 5652 5649 5646 5644 5640 5638 5635 5632 5629 5625 5622 5619 5616 5613 5609 5606 5603 5599 5596 5592 5588 5584 5580 5576 5572 5568 5565 5561 5557 5553 5549 5546 5543 5539 5536 5533 5529 5525 5522 5519 5516 5513 5510 5508 5506 5504 5502 5499 5497 5495 5494 5492 5490 5488 5486 5484 5481 5479 5477 5474 5472 5470 5468
5661 5659 5657 5654 5652 5649 5647 5644 5641 5638 5635 5632 5629 5626 5623 5619 5616 5613 5609 5606 5603 5599 5595 5592 5588 5584 5580 5577 5573 5569 5565 5561 5557 5554 5550 5546 5542 5539 5535 5532 5529 5526 5522 5519 5515 5512 5509 5507 5504 5502 5500 5498 5496 5494 5492 5490 5489 5487 5485 5483 5481 5479 5477 5474 5472 5470 5467 5465 5463
5657 5654 5652 5649 5647 5644 5641 5638 5635 5632 5629 5626 5623 5620 5616 5613 5609 5606 5603 5599 5595 5592 5588 5584 5580 5577 5573 5569 5565 5562 5558 5554 5550 5546 5542 5539 5535 5532 5528 5525 5522 5519 5516 5512 5509 5506 5503 5501 5498 5496 5494 5492 5491 5489 5487 5485 5484 5482 5480 5479 5477 5475 5473 5470 5468 5465 5463 5460 5458
5652 5649 5647 5644 5641 5638 5635 5632 5629 5626 5623 5620 5616 5613 5610 5606 5603 5599 5595 5592 5588 5584 5581 5577 5573 5569 5565 5561 5557 5554 5550 5547 5543 5539 5535 5532 5529 5525 5522 5519 5515 5513 5509 5506 5503 5500 5497 5494 5492 5490 5488 5487 5485 5484 5482 5480 5479 5477 5475 5474 5472 5470 5468 5465 5463 5460 5458 5455 5453
5647 5644 5641 5638 5635 5633 5629 5626 5623 5620 5617 5613 5610 5607 5603 5600 5596 5593 5589 5585 5581 5577 5574 5569 5565 5561 5557 5554 5549 5546 5542 5539 5536 5533 5529 5525 5522 5519 5516 5513 5510 5507 5504 5500 5497 5494 5491 5488 5486 5484 5482 5481 5479 5478 5477 5475 5473 5471 5469 5468 5466 5464 5462 5460 5458 5455 5453 5450 5447
5641 5638 5635 5632 5629 5627 5623 5620 5617 5614 5610 5607 5604 5600 5597 5593 5589 5585 5582 5578 5574 5570 5566 5562 5558 5554 5550 5546 5542 5538 5535 5531 5529 5526 5523 5520 5516 5513 5510 5508 5504 5502 5499 5495 5492 5489 5486 5483 5480 5478 5475 5474 5473 5472 5470 5469 5468 5466 5464 5461 5459 5457 5455 5454 5451 5449 5447 5444 5441
5636 5633 5630 5627 5624 5620 5617 5614 5611 5607 5604 5600 5597 5593 5589 5586 5582 5578 5574 5570 5566 5562 5558 5554 5550 5547 5543 5539 5535 5532 5528 5525 5522 5519 5516 5514 5511 5508 5505 5502 5499 5496 5493 5490 5487 5484 5481 5478 5475 5472 5469 5467 5466 5465 5464 5462 5461 5459 5457 5455 5453 5450 5448 5446 5444 5442 5440 5438 5435
5630 5627 5624 5621 5618 5614 5611 5608 5604 5601 5597 5594 5590 5586 5582 5578 5574 5570 5567 5563 5559 5555 5551 5547 5543 5539 5536 5532 5529 5525 5522 5519 5515 5513 5510 5508 5505 5502 5500 5497 5494 5490 5487 5484 5482 5479 5476 5473 5470 5467 5464 5461 5459 5458 5457 5455 5454 5452 5450 5448 5446 5443 5441 5439 5436 5434 5432 5430 5428
5625 5622 5618 5615 5612 5608 5605 5601 5598 5594 5590 5587 5583 5579 5575 5571 5567 5563 5559 5555 5551 5548 5544 5540 5536 5533 5529 5526 5523 5519 5516 5513 5510 5507 5504 5502 5499 5496 5494 5491 5489 5485 5482 5479 5476 5474 5471 5468 5465 5462 5459 5455 5453 5451 5449 5448 5446 5445 5443 5441 5439 5436 5434 5431 5428 5426 5424 5422 5419
5619 5616 5613 5609 5606 5602 5599 5595 5591 5587 5583 5579 5575 5571 5567 5563 5559 5555 5552 5548 5544 5540 5537 5533 5530 5526 5523 5519 5516 5514 5510 5507 5504 5501 5499 5496 5494 5491 5489 5486 5483 5480 5477 5474 5471 5468 5465 5463 5460 5457 5454 5450 5447 5444 5442 5440 5439 5437 5435 5433 5431 5429 5426 5423 5420 5418 5415 5413 5411
5614 5610 5607 5603 5599 5596 5592 5588 5584 5580 5576 5572 5568 5564 5560 5556 5552 5548 5544 5541 5538 5534 5530 5527 5524 5520 5517 5513 5510 5507 5504 5501 5498 5495 5493 5491 5489 5486 5484 5481 5478 5475 5472 5469 5465 5463 5459 5457 5454 5451 5448 5444 5441 5438 5435 5434 5431 5429 5427 5425 5423 5420 5418 5415 5412 5409 5407 5404 5402
5608 5604 5601 5597 5593 5589 5585 5581 5577 5573 5569 5565 5561 5557 5553 5549 5545 5541 5538 5534 5531 5528 5524 5520 5517 5514 5511 5508 5505 5502 5499 5496 5493 5490 5488 5485 5483 5481 5478 5475 5473 5469 5466 5463 5459 5457 5454 5451 5448 5444 5441 5438 5435 5432 5429 5426 5424 5422 5419 5417 5414 5412 5409 5406 5403 5400 5398 5395 5392
5602 5598 5594 5590 5586 5582 5578 5574 5570 5566 5562 5558 5554 5550 5546 5543 5539 5535 5531 5528 5525 5522 5518 5514 5511 5508 5505 5502 5499 5497 5494 5491 5488 5485 5483 5480 5477 5475 5472 5470 5467 5464 5460 5457 5454 5450 5448 5444 5441 5438 5435 5431 5428 5425 5422 5419 5417 5414 5412 5409 5406 5404 5400 5398 5394 5392 5389 5386 5384
5595 5591 5588 5584 5579 5575 5571 5567 5563 5559 5555 5551 5547 5543 5540 5536 5533 5529 5525 5522 5519 5516 5513 5509 5506 5503 5500 5497 5494 5492 5489 5486 5483 5480 5477 5474 5472 5469 5467 5464 5461 5458 5454 5451 5447 5444 5441 5438 5434 5431 5428 5424 5421 5418 5415 5412 5409 5406 5404 5401 5398 5395 5392 5389 5386 5383 5380 5378 5375
5589 5585 5581 5577 5573 5569 5564 5560 5556 5553 5549 5545 5541 5537 5533 5530 5527 5524 5520 5516 5513 5510 5507 5504 5501 5498 5495 5492 5489 5486 5484 5480 5477 5474 5471 5469 5466 5464 5461 5458 5455 5452 5448 5444 5441 5437 5434 5431 5427 5424 5420 5416 5413 5410 5407 5404 5401 5398 5395 5393 5390 5387 5384 5381 5378 5375 5372 5369 5366
5582 5578 5574 5570 5566 5562 5558 5554 5550 5546 5542 5539 5535 5531 5528 5524 5521 5518 5515 5512 5509 5505 5502 5499 5496 5493 5490 5486 5483 5480 5478 5475 5472 5469 5465 5463 5460 5458 5455 5452 5449 5445 5442 5438 5434 5430 5427 5423 5419 5415 5412 5408 5404 5401 5398 5395 5393 5390 5387 5384 5381 5379 5376 5373 5370 5367 5364 5361 5359
5575 5571 5568 5563 5559 5555 5551 5548 5544 5540 5536 5533 5529 5526 5523 5519 5515 5512 5509 5506 5504 5501 5497 5494 5491 5488 5485 5482 5479 5475 5472 5469 5466 5463 5459 5456 5454 5451 5448 5445 5442 5439 5435 5431 5427 5423 5419 5415 5411 5407 5403 5399 5395 5392 5389 5386 5384 5381 5378 5375 5373 5370 5367 5364 5362 5359 5356 5354 5351
5568 5564 5561 5557 5553 5549 5545 5541 5538 5534 5531 5527 5524 5520 5517 5514 5511 5507 5504 5500 5498 5496 5492 5489 5486 5483 5480 5477 5474 5471 5467 5464 5460 5457 5453 5450 5447 5444 5441 5438 5434 5431 5428 5424 5419 5415 5411 5407 5403 5399 5394 5390 5386 5383 5380 5377 5374 5372 5369 5367 5364 5361 5359 5356 5353 5350 5348 5346 5343
5561 5558 5554 5550 5547 5543 5539 5535 5532 5529 5525 5522 5518 5515 5512 5509 5506 5502 5499 5495 5493 5490 5487 5484 5481 5478 5475 5472 5469 5465 5462 5458 5455 5451 5447 5443 5439 5436 5433 5430 5426 5423 5419 5416 5411 5407 5403 5399 5394 5390 5385 5381 5377 5374 5370 5368 5365 5363 5360 5357 5355 5352 5350 5347 5345 5342 5340 5338 5335
5555 5551 5548 5544 5540 5537 5533 5529 5526 5523 5520 5517 5514 5510 5506 5503 5500 5497 5493 5490 5487 5484 5482 5479 5476 5472 5469 5466 5463 5460 5456 5453 5449 5445 5441 5437 5433 5429 5425 5422 5418 5414 5411 5407 5403 5398 5394 5390 5385 5381 5376 5372 5368 5364 5361 5358 5355 5353 5350 5348 5345 5343 5341 5339 5336 5334 5331 5329 5327
5549 5545 5541 5538 5534 5531 5528 5524 5521 5517 5514 5511 5509 5505 5501 5498 5495 5491 5488 5485 5482 5479 5476 5474 5470 5467 5463 5460 5457 5454 5450 5447 5443 5439 5435 5430 5426 5422 5418 5414 5410 5406 5402 5399 5394 5390 5385 5381 5377 5372 5368 5363 5359 5355 5352 5349 5346 5343 5341 5339 5336 5334 5332 5330 5328 5326 5324 5321 5319
5543 5539 5536 5532 5528 5525 5522 5519 5516 5512 5509 5505 5502 5499 5496 5493 5489 5486 5483 5480 5477 5474 5470 5468 5464 5461 5457 5454 5450 5447 5444 5440 5436 5433 5429 5424 5419 5415 5411 5407 5402 5398 5394 5390 5386 5382 5377 5373 5368 5364 5359 5354 5350 5346 5343 5340 5337 5334 5331 5329 5327 5325 5323 5321 5319 5318 5316 5314 5312